Location: Arrien
(43.3167°N, 0.1500°W)
Time: 04:45:51
(UTC+00:00)

Cosmos 1934 Rocket - Pass Details

Date: 15 October 2021
Orbit: 939 x 998 km, 83.0° (Epoch: 08 December)

Event Time Altitude Azimuth Distance (km) Brightness Sun altitude
Rises 19:09:43 0° 186° (S) 3,639 7.0 -21.2°
Reaches altitude 10° 19:12:14 10° 187° (S) 2,688 6.3 -21.6°
Maximum altitude 19:18:23 87° 274° (W) 959 3.9 -22.7°
Drops below altitude 10° 19:24:30 10° 7° (N) 2,672 6.3 -23.8°
Sets 19:26:59 0° 8° (N) 3,616 7.0 -24.3°
